Bloomington, IN

10:04 PM EDT on May 26, 2018 (GMT -0400)
Monroe County

Weather History for KBMG - January, 2011

Change the Weather History Date:

Thursday, January 6, 2011

  Actual Average Record
Temperature  
Mean Temperature 30 °F 29 °F  
Max Temperature 34 °F 38 °F 62 °F (2008)
Min Temperature 26 °F 21 °F -11 °F (2014)
Degree Days  
Heating Degree Days 35 36  
Month to date heating degree days 212 216  
Since 1 July heating degree days 2383 2289  
Cooling Degree Days 0 0  
Month to date cooling degree days 0 0  
Year to date cooling degree days 0 0  
Moisture  
Dew Point 21 °F    
Average Humidity 71    
Maximum Humidity 78    
Minimum Humidity 63    
Precipitation  
Precipitation T in 0.13 in 0.27 in (2002)
Month to date precipitation 0.75 0.80  
Year to date precipitation 0.75 0.80  
Sea Level Pressure  
Sea Level Pressure 29.70 in    
Wind  
Wind Speed 8 mph (West)    
Max Wind Speed 23 mph    
Max Gust Speed 31 mph    
Visibility 9 miles    
Events Snow    
T = Trace of Precipitation, MM = Missing Value Source: NWS Daily Summary

Daily Weather History Graph

Daily Weather History Graph

Search for Another Location

Airport or City:

Astronomy

Jan. 06, 2011 Rise Set
Actual Time 8:06 AM EST 5:38 PM EST
Civil Twilight 7:36 AM EST 6:08 PM EST
Nautical Twilight 7:02 AM EST 6:41 PM EST
Astronomical Twilight 6:30 AM EST 7:14 PM EST
Moon 9:23 AM EST (1/6) 8:13 PM EST (1/6)
Length of Visible Light 10h 32m
Length of Day
9h 32m
Waxing Crescent, 5% of the Moon is Illuminated
Jan 6
Waxing Crescent
Jan 12
First Quarter
Jan 19
Full
Jan 26
Last Quarter
Feb 2
New

Hourly Weather History & Observations

Time (EST) Temp. Windchill Dew Point Humidity Pressure Visibility Wind Dir Wind Speed Gust Speed Precip Events Conditions
12:53 AM 28.9 °F 22.8 °F 19.0 °F 67% 29.83 in 10.0 mi West 5.8 mph - N/A   Overcast
1:53 AM 28.0 °F 22.8 °F 19.0 °F 69% 29.81 in 10.0 mi SW 4.6 mph - N/A   Overcast
2:53 AM 30.0 °F 24.1 °F 19.9 °F 66% 29.81 in 10.0 mi WSW 5.8 mph - N/A   Overcast
3:53 AM 28.9 °F 21.9 °F 19.9 °F 69% 29.79 in 10.0 mi WSW 6.9 mph - N/A   Overcast
5:53 AM 28.9 °F 21.9 °F 19.9 °F 69% 29.74 in 10.0 mi WSW 6.9 mph - N/A   Mostly Cloudy
6:53 AM 28.0 °F 20.8 °F 19.9 °F 72% 29.75 in 10.0 mi WSW 6.9 mph - N/A   Mostly Cloudy
7:53 AM 28.0 °F 21.7 °F 19.9 °F 72% 29.74 in 10.0 mi WSW 5.8 mph - N/A   Overcast
8:53 AM 28.0 °F 20.8 °F 21.0 °F 75% 29.73 in 8.0 mi WSW 6.9 mph - N/A   Overcast
9:53 AM 30.0 °F 22.4 °F 21.9 °F 72% 29.73 in 9.0 mi West 8.1 mph - N/A   Clear
10:53 AM 32.0 °F 23.6 °F 23.0 °F 69% 29.73 in 10.0 mi WNW 10.4 mph - N/A   Mostly Cloudy
11:07 AM 30.2 °F 23.4 °F 23.0 °F 75% 29.72 in 10.0 mi Variable 6.9 mph 17.3 mph N/A   Overcast
11:46 AM 32.0 °F 24.2 °F 24.8 °F 75% 29.68 in 10.0 mi WSW 9.2 mph - N/A   Overcast
11:53 AM 33.1 °F 25.5 °F 25.0 °F 72% 29.69 in 10.0 mi West 9.2 mph - N/A   Mostly Cloudy
12:21 PM 33.8 °F 27.0 °F 24.8 °F 70% 29.65 in 10.0 mi West 8.1 mph 17.3 mph N/A   Mostly Cloudy
12:53 PM 32.0 °F 22.5 °F 24.1 °F 73% 29.66 in 10.0 mi West 12.7 mph - N/A   Overcast
1:53 PM 30.9 °F 20.7 °F 24.1 °F 76% 29.65 in 9.0 mi WNW 13.8 mph 21.9 mph N/A   Overcast
2:25 PM 30.2 °F 19.8 °F 24.8 °F 80% 29.63 in 6.0 mi West 13.8 mph 20.7 mph N/A   Haze
2:49 PM 28.4 °F 17.0 °F 23.0 °F 80% 29.63 in 2.5 mi West 15.0 mph 25.3 mph 0.00 in Snow Light Snow
2:53 PM 28.9 °F 18.6 °F 23.0 °F 78% 29.66 in 3.0 mi WNW 12.7 mph 24.2 mph 0.00 in Snow Light Snow
3:02 PM 30.2 °F 18.9 °F 21.2 °F 69% 29.63 in 5.0 mi West 16.1 mph 27.6 mph 0.00 in Snow Light Snow
3:53 PM 28.0 °F 17.0 °F 19.0 °F 69% 29.68 in 10.0 mi WNW 13.8 mph 24.2 mph 0.00 in   Overcast
4:53 PM 28.0 °F 18.1 °F 19.0 °F 69% 29.68 in 10.0 mi WNW 11.5 mph 19.6 mph N/A   Overcast
5:53 PM 28.0 °F 20.0 °F 19.0 °F 69% 29.69 in 10.0 mi West 8.1 mph - N/A   Overcast
6:16 PM 28.4 °F 21.2 °F 19.4 °F 69% 29.66 in 10.0 mi WNW 6.9 mph - N/A   Overcast
6:53 PM 28.0 °F 20.0 °F 19.0 °F 69% 29.70 in 10.0 mi West 8.1 mph - N/A   Overcast
7:53 PM 28.0 °F 21.7 °F 19.0 °F 69% 29.69 in 10.0 mi West 5.8 mph - N/A   Overcast
8:53 PM 28.0 °F 20.0 °F 19.0 °F 69% 29.70 in 10.0 mi WNW 8.1 mph - N/A   Overcast
9:53 PM 28.0 °F 20.0 °F 19.9 °F 72% 29.69 in 10.0 mi West 8.1 mph - N/A   Overcast
10:07 PM 28.4 °F 21.2 °F 19.4 °F 69% 29.66 in 10.0 mi WNW 6.9 mph - N/A   Overcast
10:24 PM 28.4 °F 20.4 °F 19.4 °F 69% 29.65 in 10.0 mi West 8.1 mph - N/A   Overcast
10:53 PM 28.0 °F 20.8 °F 19.9 °F 72% 29.66 in 10.0 mi West 6.9 mph - N/A   Overcast
11:53 PM 26.1 °F 16.2 °F 17.1 °F 69% 29.64 in 10.0 mi West 10.4 mph - N/A   Partly Cloudy